Regional Weather Roundup
Issued by NWS Little Rock, AR

Home | Current Version | Previous Version | Text Only | Print | Product List | Glossary On
Versions: 1 2 3 4 5 6 7 8 9 10 11 12 13 14 15 16 17 18 19 20 21 22 23 24 25 26 27 28 29 30 31
000
ASUS44 KLZK 210305
RWRLZK

WEATHER ROUNDUP FOR ARKANSAS
NATIONAL WEATHER SERVICE LITTLE ROCK AR
1000 PM CDT SUN MAY 20 2018

NOTE: "FAIR" INDICATES FEW OR NO CLOUDS BELOW 12,000 FEET WITH NO
SIGNIFICANT WEATHER AND/OR OBSTRUCTIONS TO VISIBILITY.

ARZ001-003-010-029-210400-
NORTHWEST ARKANSAS

CITY           SKY/WX    TMP DP  RH WIND       PRES   REMARKS
FAYETTEVILLE   CLOUDY    65  64  97 CALM      30.05R
FORT SMITH     CLOUDY    70  67  90 SW3       30.01R
HARRISON       CLOUDY    66  65  96 CALM      30.07R
BENTONVILLE    PTCLDY    68  67  96 SE6       30.06R
ROGERS         CLOUDY    68  67  96 SE7       30.05R
SILOAM SPGS    CLOUDY    67  66  97 CALM      30.04R FOG
HIGHFILL       MOCLDY    66  64  94 S5        30.04R
$$

ARZ004-005-016-210400-
NORTH CENTRAL ARKANSAS

CITY           SKY/WX    TMP DP  RH WIND       PRES   REMARKS
BATESVILLE     LGT RAIN  70  69  97 CALM      30.09R FOG
FLIPPIN        CLOUDY    73  66  78 E8G17     30.06R
MTN HOME       CLOUDY    72  66  81 E7        30.06R
$$

ARZ040-041-210400-
WEST CENTRAL ARKANSAS

CITY           SKY/WX    TMP DP  RH WIND       PRES   REMARKS
MENA           CLOUDY    73  70  88 CALM      30.03R
MOUNT IDA      PTCLDY    72  69  90 CALM      29.99R
$$

ARZ009-017-025-026-028-210400-
NORTHEAST ARKANSAS

CITY           SKY/WX    TMP DP  RH WIND       PRES   REMARKS
CORNING        FAIR      73  73 100 W6        30.08R
JONESBORO      LGT RAIN  72  72 100 CALM      30.04R
NEWPORT        LGT RAIN  71  69  93 SW6       30.08R
WALNUT RIDGE     N/A     71  67  87 W8        30.07R
BLYTHEVILLE    FAIR      72  66  81 E7        30.07R
$$

ARZ022-023-033-042-044-210400-
CENTRAL ARKANSAS

CITY           SKY/WX    TMP DP  RH WIND       PRES   REMARKS
LITTLE ROCK    TSTM      74  69  85 SE10      30.03R
N LITTLE ROCK    N/A     73  68  84 E8        29.99R
JACKSONVILLE   PTCLDY    75  67  77 NE7       30.02R
CONWAY           N/A     77  68  73 E14       30.00R
SEARCY         LGT RAIN  72  71  97 E7        30.05R
HOT SPRINGS    CLOUDY    78  71  79 CALM      30.01R
RUSSELLVILLE   MOCLDY    78  66  66 W7        29.99R
CLINTON        RAIN      72  68  88 VRB7      30.04R
$$

ARZ036-210400-
EAST ARKANSAS

CITY           SKY/WX    TMP DP  RH WIND       PRES   REMARKS
WEST MEMPHIS   FAIR      76  69  79 E7        30.04R
$$

ARZ050-053-066-070-073-210400-
SOUTHWEST ARKANSAS

CITY           SKY/WX    TMP DP  RH WIND       PRES   REMARKS
ARKADELPHIA    HAZE      76  71  85 W6        30.00S VSB 1/4
CAMDEN         CLOUDY    77  70  78 CALM      29.99R
TEXARKANA      CLOUDY    78  73  84 SW7       30.00R
EL DORADO      FAIR      74  73  97 CALM      30.01R
DE QUEEN       CLOUDY    76  69  79 CALM      29.98R
$$

ARZ056-057-069-210400-
SOUTHEAST ARKANSAS

CITY           SKY/WX    TMP DP  RH WIND       PRES   REMARKS
PINE BLUFF     MOCLDY    82  70  66 VRB5      30.00R HX  86
STUTTGART      FAIR      71  69  93 N6        30.04R
MONTICELLO     MOCLDY    79  70  74 E7        30.02R

$$






USA.gov is the U.S. government's official web portal to all federal, state and local government web resources and services.